Time,TemperatureF,DewpointF,PressureIn,WindDirection,WindDirectionDegrees,WindSpeedMPH,WindSpeedGustMPH,Humidity,HourlyPrecipIn,Conditions,Clouds,dailyrainin,SoftwareType,DateUTC
2013-03-09 00:04:00,53.6,33.3,30.20,East,94,1.0,5.0,46,0.00,,,0.00,meteohub,2013-03-09 06:04:00,
2013-03-09 00:10:00,53.2,34.0,30.20,East,93,1.0,5.0,48,0.00,,,0.00,meteohub,2013-03-09 06:10:00,
2013-03-09 00:15:00,53.1,33.8,30.20,East,93,1.0,5.0,48,0.00,,,0.00,meteohub,2013-03-09 06:15:00,
2013-03-09 00:20:00,52.9,33.8,30.20,East,93,0.0,3.0,48,0.00,,,0.00,meteohub,2013-03-09 06:20:00,
2013-03-09 00:25:00,52.3,34.2,30.20,East,93,0.0,3.0,50,0.00,,,0.00,meteohub,2013-03-09 06:25:00,
2013-03-09 00:30:00,52.0,34.0,30.20,East,93,0.0,3.0,50,0.00,,,0.00,meteohub,2013-03-09 06:30:00,
2013-03-09 00:35:00,51.6,33.6,30.20,East,93,0.0,1.0,50,0.00,,,0.00,meteohub,2013-03-09 06:35:00,
2013-03-09 00:40:00,51.4,33.4,30.20,East,93,0.0,1.0,50,0.00,,,0.00,meteohub,2013-03-09 06:40:00,
2013-03-09 00:45:00,51.1,33.6,30.20,East,93,0.0,0.0,51,0.00,,,0.00,meteohub,2013-03-09 06:45:00,
2013-03-09 00:50:00,50.7,33.3,30.20,East,93,0.0,0.0,51,0.00,,,0.00,meteohub,2013-03-09 06:50:00,
2013-03-09 00:55:00,50.5,33.1,30.20,East,93,0.0,0.0,51,0.00,,,0.00,meteohub,2013-03-09 06:55:00,
2013-03-09 01:00:00,50.5,33.1,30.20,East,93,0.0,0.0,51,0.00,,,0.00,meteohub,2013-03-09 07:00:00,
2013-03-09 01:06:00,50.5,33.1,30.20,East,93,0.0,0.0,51,0.00,,,0.00,meteohub,2013-03-09 07:06:00,
2013-03-09 01:11:00,50.4,33.4,30.20,East,93,0.0,0.0,52,0.00,,,0.00,meteohub,2013-03-09 07:11:00,
2013-03-09 01:16:00,49.8,33.8,30.20,East,93,0.0,1.0,54,0.00,,,0.00,meteohub,2013-03-09 07:16:00,
2013-03-09 01:21:00,49.3,34.7,30.20,East,93,0.0,1.0,57,0.00,,,0.00,meteohub,2013-03-09 07:21:00,
2013-03-09 01:26:00,48.9,35.2,30.20,East,93,0.0,1.0,59,0.00,,,0.00,meteohub,2013-03-09 07:26:00,
2013-03-09 01:31:00,48.6,34.9,30.20,East,93,0.0,1.0,59,0.00,,,0.00,meteohub,2013-03-09 07:31:00,
2013-03-09 01:36:00,48.0,35.2,30.20,East,93,0.0,0.0,61,0.00,,,0.00,meteohub,2013-03-09 07:36:00,
2013-03-09 01:41:00,47.7,34.9,30.20,East,93,0.0,0.0,61,0.00,,,0.00,meteohub,2013-03-09 07:41:00,
2013-03-09 01:46:00,47.5,33.8,30.20,East,93,0.0,0.0,59,0.00,,,0.00,meteohub,2013-03-09 07:46:00,
2013-03-09 01:51:00,47.3,35.4,30.20,East,93,0.0,1.0,63,0.00,,,0.00,meteohub,2013-03-09 07:51:00,
2013-03-09 01:57:00,46.9,36.5,30.19,East,93,1.0,2.0,67,0.00,,,0.00,meteohub,2013-03-09 07:57:00,
2013-03-09 02:02:00,46.9,36.5,30.19,East,93,1.0,2.0,67,0.00,,,0.00,meteohub,2013-03-09 08:02:00,
2013-03-09 02:07:00,46.8,36.7,30.19,East,93,0.0,2.0,68,0.00,,,0.00,meteohub,2013-03-09 08:07:00,
2013-03-09 02:12:00,46.6,36.1,30.19,East,93,0.0,2.0,67,0.00,,,0.00,meteohub,2013-03-09 08:12:00,
2013-03-09 02:17:00,46.6,36.5,30.19,East,93,0.0,2.0,68,0.00,,,0.00,meteohub,2013-03-09 08:17:00,
2013-03-09 02:22:00,46.2,37.0,30.19,East,93,0.0,1.0,70,0.00,,,0.00,meteohub,2013-03-09 08:22:00,
2013-03-09 02:27:00,46.0,36.5,30.19,East,93,0.0,1.0,69,0.00,,,0.00,meteohub,2013-03-09 08:27:00,
2013-03-09 02:32:00,45.9,36.7,30.19,East,93,0.0,1.0,70,0.00,,,0.00,meteohub,2013-03-09 08:32:00,
2013-03-09 02:37:00,45.7,36.5,30.19,East,93,0.0,1.0,70,0.00,,,0.00,meteohub,2013-03-09 08:37:00,
2013-03-09 02:42:00,45.7,36.5,30.19,East,93,0.0,0.0,70,0.00,,,0.00,meteohub,2013-03-09 08:42:00,
2013-03-09 02:47:00,45.5,36.3,30.19,East,93,0.0,0.0,70,0.00,,,0.00,meteohub,2013-03-09 08:47:00,
2013-03-09 02:52:00,45.3,35.8,30.19,East,93,0.0,0.0,69,0.00,,,0.00,meteohub,2013-03-09 08:52:00,
2013-03-09 02:57:00,45.5,36.3,30.19,East,93,0.0,0.0,70,0.00,,,0.00,meteohub,2013-03-09 08:57:00,
2013-03-09 03:02:00,45.3,35.8,30.19,East,93,0.0,1.0,69,0.00,,,0.00,meteohub,2013-03-09 09:02:00,
2013-03-09 03:07:00,45.3,36.5,30.19,East,93,0.0,2.0,71,0.00,,,0.00,meteohub,2013-03-09 09:07:00,
2013-03-09 03:12:00,45.3,36.5,30.19,East,93,0.0,2.0,71,0.00,,,0.00,meteohub,2013-03-09 09:12:00,
2013-03-09 03:17:00,45.5,37.4,30.19,East,93,1.0,1.0,73,0.00,,,0.00,meteohub,2013-03-09 09:17:00,
2013-03-09 03:22:00,45.7,37.6,30.19,East,93,0.0,1.0,73,0.00,,,0.00,meteohub,2013-03-09 09:22:00,
2013-03-09 03:27:00,45.9,37.8,30.19,East,93,0.0,1.0,73,0.00,,,0.00,meteohub,2013-03-09 09:27:00,
2013-03-09 03:32:00,45.9,37.8,30.19,East,93,0.0,1.0,73,0.00,,,0.00,meteohub,2013-03-09 09:32:00,
2013-03-09 03:37:00,45.9,38.1,30.19,East,93,1.0,2.0,74,0.00,,,0.00,meteohub,2013-03-09 09:37:00,
2013-03-09 03:42:00,45.9,37.4,30.19,East,93,0.0,2.0,72,0.00,,,0.00,meteohub,2013-03-09 09:42:00,
2013-03-09 03:47:00,46.0,38.3,30.19,East,93,1.0,1.0,74,0.00,,,0.00,meteohub,2013-03-09 09:47:00,
2013-03-09 03:52:00,46.2,37.8,30.19,East,93,0.0,2.0,72,0.00,,,0.00,meteohub,2013-03-09 09:52:00,
2013-03-09 03:57:00,46.6,37.8,30.19,East,93,0.0,2.0,71,0.00,,,0.00,meteohub,2013-03-09 09:57:00,
2013-03-09 04:02:00,46.8,38.3,30.19,East,93,1.0,2.0,72,0.00,,,0.00,meteohub,2013-03-09 10:02:00,
2013-03-09 04:07:00,46.6,37.0,30.20,East,93,0.0,2.0,69,0.00,,,0.00,meteohub,2013-03-09 10:07:00,
2013-03-09 04:12:00,46.8,37.2,30.20,East,93,0.0,2.0,69,0.00,,,0.00,meteohub,2013-03-09 10:12:00,
2013-03-09 04:17:00,46.8,37.6,30.20,East,93,0.0,2.0,70,0.00,,,0.00,meteohub,2013-03-09 10:17:00,
2013-03-09 04:22:00,46.6,37.0,30.21,East,93,0.0,1.0,69,0.00,,,0.00,meteohub,2013-03-09 10:22:00,
2013-03-09 04:27:00,46.6,37.0,30.20,East,93,1.0,1.0,69,0.00,,,0.00,meteohub,2013-03-09 10:27:00,
2013-03-09 04:32:00,46.8,37.6,30.21,East,93,0.0,2.0,70,0.00,,,0.00,meteohub,2013-03-09 10:32:00,
2013-03-09 04:37:00,46.9,36.5,30.20,East,93,0.0,2.0,67,0.00,,,0.00,meteohub,2013-03-09 10:37:00,
2013-03-09 04:42:00,46.9,37.6,30.21,East,93,0.0,2.0,70,0.00,,,0.00,meteohub,2013-03-09 10:42:00,
2013-03-09 04:47:00,46.6,38.1,30.21,East,93,0.0,2.0,72,0.00,,,0.00,meteohub,2013-03-09 10:47:00,
2013-03-09 04:52:00,46.2,37.4,30.21,East,93,0.0,2.0,71,0.00,,,0.00,meteohub,2013-03-09 10:52:00,
2013-03-09 04:57:00,46.2,37.4,30.22,East,93,0.0,1.0,71,0.00,,,0.00,meteohub,2013-03-09 10:57:00,
2013-03-09 05:02:00,46.0,36.9,30.22,East,93,1.0,1.0,70,0.00,,,0.00,meteohub,2013-03-09 11:02:00,
2013-03-09 05:07:00,46.0,36.5,30.21,East,93,2.0,2.0,69,0.00,,,0.00,meteohub,2013-03-09 11:07:00,
2013-03-09 05:12:00,46.0,37.2,30.21,East,93,2.0,3.0,71,0.00,,,0.00,meteohub,2013-03-09 11:12:00,
2013-03-09 05:17:00,46.0,36.9,30.21,East,93,1.0,3.0,70,0.00,,,0.00,meteohub,2013-03-09 11:17:00,
2013-03-09 05:22:00,46.0,36.9,30.21,East,93,2.0,3.0,70,0.00,,,0.00,meteohub,2013-03-09 11:22:00,
2013-03-09 05:27:00,46.8,36.3,30.21,East,97,2.0,5.0,67,0.00,,,0.00,meteohub,2013-03-09 11:27:00,
2013-03-09 05:32:00,46.9,36.9,30.21,East,85,2.0,5.0,68,0.00,,,0.00,meteohub,2013-03-09 11:32:00,
2013-03-09 05:37:00,46.8,36.3,30.21,East,92,5.0,5.0,67,0.00,,,0.00,meteohub,2013-03-09 11:37:00,
2013-03-09 05:42:00,47.1,36.3,30.21,East,91,1.0,5.0,66,0.00,,,0.00,meteohub,2013-03-09 11:42:00,
2013-03-09 05:47:00,47.7,36.5,30.21,East,90,2.0,5.0,65,0.00,,,0.00,meteohub,2013-03-09 11:47:00,
2013-03-09 05:52:00,47.8,36.3,30.21,East,90,1.0,5.0,64,0.00,,,0.00,meteohub,2013-03-09 11:52:00,
2013-03-09 05:57:00,47.7,36.1,30.22,East,90,1.0,5.0,64,0.00,,,0.00,meteohub,2013-03-09 11:57:00,
2013-03-09 06:02:00,47.7,36.1,30.22,East,90,1.0,3.0,64,0.00,,,0.00,meteohub,2013-03-09 12:02:00,
2013-03-09 06:07:00,47.5,36.3,30.22,East,90,0.0,3.0,65,0.00,,,0.00,meteohub,2013-03-09 12:07:00,
2013-03-09 06:12:00,47.5,37.0,30.23,East,90,0.0,3.0,67,0.00,,,0.00,meteohub,2013-03-09 12:12:00,
2013-03-09 06:17:00,47.1,36.7,30.22,East,90,2.0,2.0,67,0.00,,,0.00,meteohub,2013-03-09 12:17:00,
2013-03-09 06:22:00,46.4,37.2,30.22,East,90,5.0,5.0,70,0.00,,,0.00,meteohub,2013-03-09 12:22:00,
2013-03-09 06:27:00,46.0,37.2,30.22,East,85,1.0,7.0,71,0.00,,,0.00,meteohub,2013-03-09 12:27:00,
2013-03-09 06:32:00,46.0,37.6,30.22,East,93,5.0,7.0,72,0.00,,,0.00,meteohub,2013-03-09 12:32:00,
2013-03-09 06:37:00,46.8,37.2,30.22,East,91,7.0,7.0,69,0.00,,,0.00,meteohub,2013-03-09 12:37:00,
2013-03-09 06:42:00,47.5,37.0,30.22,East,100,7.0,7.0,67,0.00,,,0.00,meteohub,2013-03-09 12:42:00,
2013-03-09 06:47:00,47.8,37.4,30.22,East,93,5.0,9.0,67,0.00,,,0.00,meteohub,2013-03-09 12:47:00,
2013-03-09 06:52:00,48.2,37.4,30.22,ESE,109,2.0,9.0,66,0.00,,,0.00,meteohub,2013-03-09 12:52:00,
2013-03-09 06:57:00,48.4,37.6,30.23,ESE,116,4.0,9.0,66,0.00,,,0.00,meteohub,2013-03-09 12:57:00,
2013-03-09 07:02:00,48.4,37.2,30.23,East,95,5.0,8.0,65,0.00,,,0.00,meteohub,2013-03-09 13:02:00,
2013-03-09 07:07:00,48.7,37.6,30.24,East,101,3.0,8.0,65,0.00,,,0.00,meteohub,2013-03-09 13:07:00,
2013-03-09 07:12:00,49.1,37.8,30.24,ESE,103,4.0,7.0,65,0.00,,,0.00,meteohub,2013-03-09 13:12:00,
2013-03-09 07:17:00,49.6,38.3,30.24,ESE,110,5.0,7.0,65,0.00,,,0.00,meteohub,2013-03-09 13:17:00,
2013-03-09 07:22:00,50.2,38.8,30.24,ESE,103,4.0,8.0,65,0.00,,,0.00,meteohub,2013-03-09 13:22:00,
2013-03-09 07:27:00,50.5,38.8,30.24,East,100,5.0,8.0,64,0.00,,,0.00,meteohub,2013-03-09 13:27:00,
2013-03-09 07:32:00,51.1,38.8,30.24,East,80,10.0,10.0,63,0.00,,,0.00,meteohub,2013-03-09 13:32:00,
2013-03-09 07:37:00,51.6,39.4,30.24,East,87,7.0,10.0,63,0.00,,,0.00,meteohub,2013-03-09 13:37:00,
2013-03-09 07:42:00,52.2,39.2,30.24,East,91,7.0,10.0,61,0.00,,,0.00,meteohub,2013-03-09 13:42:00,
2013-03-09 07:47:00,52.5,39.4,30.25,East,100,5.0,10.0,61,0.00,,,0.00,meteohub,2013-03-09 13:47:00,
2013-03-09 07:52:00,53.1,39.9,30.25,ESE,103,3.0,10.0,61,0.00,,,0.00,meteohub,2013-03-09 13:52:00,
2013-03-09 07:57:00,53.4,39.9,30.24,East,97,5.0,10.0,60,0.00,,,0.00,meteohub,2013-03-09 13:57:00,
2013-03-09 08:02:00,53.8,39.7,30.25,East,87,5.0,11.0,59,0.00,,,0.00,meteohub,2013-03-09 14:02:00,
2013-03-09 08:07:00,54.1,40.6,30.25,ENE,73,4.0,11.0,60,0.00,,,0.00,meteohub,2013-03-09 14:07:00,
2013-03-09 08:12:00,54.5,40.8,30.25,ESE,106,4.0,10.0,60,0.00,,,0.00,meteohub,2013-03-09 14:12:00,
2013-03-09 08:17:00,54.7,40.6,30.25,ENE,73,3.0,10.0,59,0.00,,,0.00,meteohub,2013-03-09 14:17:00,
2013-03-09 08:22:00,54.9,41.2,30.25,ESE,114,1.0,10.0,60,0.00,,,0.00,meteohub,2013-03-09 14:22:00,
2013-03-09 08:27:00,55.0,41.4,30.25,ESE,114,1.0,10.0,60,0.00,,,0.00,meteohub,2013-03-09 14:27:00,
2013-03-09 08:32:00,55.4,41.4,30.25,East,97,1.0,10.0,59,0.00,,,0.00,meteohub,2013-03-09 14:32:00,
2013-03-09 08:37:00,55.8,41.7,30.26,ESE,115,3.0,7.0,59,0.00,,,0.00,meteohub,2013-03-09 14:37:00,
2013-03-09 08:42:00,56.1,42.4,30.26,ESE,102,3.0,12.0,60,0.00,,,0.00,meteohub,2013-03-09 14:42:00,
2013-03-09 08:47:00,56.8,42.6,30.26,SE,124,3.0,12.0,59,0.00,,,0.00,meteohub,2013-03-09 14:47:00,
2013-03-09 08:52:00,57.2,42.1,30.26,SE,133,5.0,12.0,57,0.00,,,0.00,meteohub,2013-03-09 14:52:00,
2013-03-09 08:57:00,57.7,42.6,30.26,ESE,103,4.0,10.0,57,0.00,,,0.00,meteohub,2013-03-09 14:57:00,
2013-03-09 09:02:00,58.3,42.6,30.26,SE,138,4.0,10.0,56,0.00,,,0.00,meteohub,2013-03-09 15:02:00,
2013-03-09 09:07:00,58.8,43.2,30.26,ESE,103,4.0,12.0,56,0.00,,,0.00,meteohub,2013-03-09 15:07:00,
2013-03-09 09:12:00,59.5,43.3,30.26,SSE,147,6.0,12.0,55,0.00,,,0.00,meteohub,2013-03-09 15:12:00,
2013-03-09 09:17:00,59.7,43.0,30.26,ESE,112,5.0,12.0,54,0.00,,,0.00,meteohub,2013-03-09 15:17:00,
2013-03-09 09:22:00,60.3,42.6,30.26,ESE,121,4.0,13.0,52,0.00,,,0.00,meteohub,2013-03-09 15:22:00,
2013-03-09 09:27:00,60.6,43.3,30.26,SE,141,3.0,13.0,53,0.00,,,0.00,meteohub,2013-03-09 15:27:00,
2013-03-09 09:32:00,61.2,42.4,30.26,ESE,114,8.0,12.0,50,0.00,,,0.00,meteohub,2013-03-09 15:32:00,
2013-03-09 09:37:00,61.9,43.0,30.26,East,91,6.0,12.0,50,0.00,,,0.00,meteohub,2013-03-09 15:37:00,
2013-03-09 09:42:00,62.2,41.2,30.26,SE,125,5.0,11.0,46,0.00,,,0.00,meteohub,2013-03-09 15:42:00,
2013-03-09 09:47:00,62.8,42.8,30.26,SSE,147,5.0,11.0,48,0.00,,,0.00,meteohub,2013-03-09 15:47:00,
2013-03-09 09:52:00,63.0,43.0,30.26,ENE,73,4.0,10.0,48,0.00,,,0.00,meteohub,2013-03-09 15:52:00,
2013-03-09 09:57:00,63.1,42.6,30.26,East,98,8.0,14.0,47,0.00,,,0.00,meteohub,2013-03-09 15:57:00,
2013-03-09 10:02:00,63.7,42.4,30.26,ESE,109,3.0,14.0,46,0.00,,,0.00,meteohub,2013-03-09 16:02:00,
2013-03-09 10:07:00,64.0,41.2,30.25,ESE,113,8.0,13.0,43,0.00,,,0.00,meteohub,2013-03-09 16:07:00,
2013-03-09 10:12:00,64.2,41.9,30.25,ENE,70,5.0,13.0,44,0.00,,,0.00,meteohub,2013-03-09 16:12:00,
2013-03-09 10:17:00,64.2,41.9,30.25,ENE,60,1.0,13.0,44,0.00,,,0.00,meteohub,2013-03-09 16:17:00,
2013-03-09 10:22:00,64.8,41.2,30.25,ESE,112,7.0,13.0,42,0.00,,,0.00,meteohub,2013-03-09 16:22:00,
2013-03-09 10:27:00,64.4,40.1,30.25,SE,124,5.0,13.0,41,0.00,,,0.00,meteohub,2013-03-09 16:27:00,
2013-03-09 10:32:00,64.8,40.5,30.25,ESE,119,3.0,13.0,41,0.00,,,0.00,meteohub,2013-03-09 16:32:00,
2013-03-09 10:37:00,64.9,39.4,30.25,SE,140,9.0,13.0,39,0.00,,,0.00,meteohub,2013-03-09 16:37:00,
2013-03-09 10:42:00,64.8,39.9,30.25,East,83,9.0,15.0,40,0.00,,,0.00,meteohub,2013-03-09 16:42:00,
2013-03-09 10:47:00,65.1,41.5,30.25,SE,131,4.0,15.0,42,0.00,,,0.00,meteohub,2013-03-09 16:47:00,
2013-03-09 10:52:00,65.7,40.6,30.25,SE,145,8.0,15.0,40,0.00,,,0.00,meteohub,2013-03-09 16:52:00,
2013-03-09 10:57:00,65.7,41.9,30.24,East,89,6.0,15.0,42,0.00,,,0.00,meteohub,2013-03-09 16:57:00,
2013-03-09 11:02:00,65.7,41.4,30.24,East,91,8.0,14.0,41,0.00,,,0.00,meteohub,2013-03-09 17:02:00,
2013-03-09 11:07:00,65.8,42.1,30.24,East,99,7.0,14.0,42,0.00,,,0.00,meteohub,2013-03-09 17:07:00,
2013-03-09 11:12:00,66.2,42.4,30.24,East,87,6.0,14.0,42,0.00,,,0.00,meteohub,2013-03-09 17:12:00,
2013-03-09 11:17:00,66.2,42.4,30.24,SE,127,0.0,14.0,42,0.00,,,0.00,meteohub,2013-03-09 17:17:00,
2013-03-09 11:22:00,66.7,42.3,30.24,SE,141,7.0,14.0,41,0.00,,,0.00,meteohub,2013-03-09 17:22:00,
2013-03-09 11:27:00,66.7,41.7,30.24,ESE,117,4.0,14.0,40,0.00,,,0.00,meteohub,2013-03-09 17:27:00,
2013-03-09 11:32:00,67.3,41.5,30.24,SE,145,10.0,14.0,39,0.00,,,0.00,meteohub,2013-03-09 17:32:00,
2013-03-09 11:37:00,67.3,40.8,30.23,ESE,103,4.0,14.0,38,0.00,,,0.00,meteohub,2013-03-09 17:37:00,
2013-03-09 11:42:00,67.6,41.7,30.23,SE,125,7.0,11.0,39,0.00,,,0.00,meteohub,2013-03-09 17:42:00,
2013-03-09 11:47:00,67.8,41.9,30.23,ESE,110,4.0,11.0,39,0.00,,,0.00,meteohub,2013-03-09 17:47:00,
2013-03-09 11:52:00,67.6,41.2,30.22,East,94,8.0,11.0,38,0.00,,,0.00,meteohub,2013-03-09 17:52:00,
2013-03-09 11:57:00,68.2,41.0,30.22,East,89,7.0,11.0,37,0.00,,,0.00,meteohub,2013-03-09 17:57:00,
2013-03-09 12:02:00,67.6,41.2,30.22,ENE,70,3.0,10.0,38,0.00,,,0.00,meteohub,2013-03-09 18:02:00,
2013-03-09 12:07:00,67.6,41.7,30.22,ESE,114,2.0,13.0,39,0.00,,,0.00,meteohub,2013-03-09 18:07:00,
2013-03-09 12:12:00,67.8,40.6,30.22,ESE,114,3.0,13.0,37,0.00,,,0.00,meteohub,2013-03-09 18:12:00,
2013-03-09 12:17:00,68.2,41.0,30.22,SE,140,4.0,14.0,37,0.00,,,0.00,meteohub,2013-03-09 18:17:00,
2013-03-09 12:22:00,68.4,40.3,30.22,SE,140,3.0,14.0,36,0.00,,,0.00,meteohub,2013-03-09 18:22:00,
2013-03-09 12:27:00,68.7,41.4,30.21,SSE,151,2.0,11.0,37,0.00,,,0.00,meteohub,2013-03-09 18:27:00,
2013-03-09 12:32:00,68.9,42.3,30.21,East,97,5.0,10.0,38,0.00,,,0.00,meteohub,2013-03-09 18:32:00,
2013-03-09 12:37:00,69.4,41.4,30.21,ESE,116,4.0,10.0,36,0.00,,,0.00,meteohub,2013-03-09 18:37:00,
2013-03-09 12:42:00,68.9,40.8,30.21,SSE,149,3.0,10.0,36,0.00,,,0.00,meteohub,2013-03-09 18:42:00,
2013-03-09 12:47:00,69.3,42.6,30.21,East,82,7.0,13.0,38,0.00,,,0.00,meteohub,2013-03-09 18:47:00,
2013-03-09 12:52:00,69.3,41.9,30.20,ESE,112,8.0,13.0,37,0.00,,,0.00,meteohub,2013-03-09 18:52:00,
2013-03-09 12:57:00,69.1,40.3,30.20,East,94,2.0,12.0,35,0.00,,,0.00,meteohub,2013-03-09 18:57:00,
2013-03-09 13:02:00,69.3,40.5,30.19,ESE,109,3.0,12.0,35,0.00,,,0.00,meteohub,2013-03-09 19:02:00,
2013-03-09 13:07:00,69.6,43.5,30.19,ENE,76,1.0,10.0,39,0.00,,,0.00,meteohub,2013-03-09 19:07:00,
2013-03-09 13:12:00,70.0,41.7,30.19,East,80,7.0,10.0,36,0.00,,,0.00,meteohub,2013-03-09 19:12:00,
2013-03-09 13:17:00,70.2,41.2,30.19,ESE,117,5.0,10.0,35,0.00,,,0.00,meteohub,2013-03-09 19:17:00,
2013-03-09 13:22:00,70.0,41.7,30.18,SE,130,5.0,9.0,36,0.00,,,0.00,meteohub,2013-03-09 19:22:00,
2013-03-09 13:27:00,69.6,41.5,30.19,ENE,77,5.0,9.0,36,0.00,,,0.00,meteohub,2013-03-09 19:27:00,
2013-03-09 13:32:00,69.4,42.1,30.19,ESE,107,2.0,11.0,37,0.00,,,0.00,meteohub,2013-03-09 19:32:00,
2013-03-09 13:38:00,69.8,43.0,30.18,East,94,5.0,11.0,38,0.00,,,0.00,meteohub,2013-03-09 19:38:00,
2013-03-09 13:43:00,69.8,41.7,30.18,East,81,6.0,11.0,36,0.00,,,0.00,meteohub,2013-03-09 19:43:00,
2013-03-09 13:48:00,69.4,41.4,30.18,South,175,2.0,10.0,36,0.00,,,0.00,meteohub,2013-03-09 19:48:00,
2013-03-09 13:53:00,69.8,42.4,30.18,East,85,2.0,10.0,37,0.00,,,0.00,meteohub,2013-03-09 19:53:00,
2013-03-09 13:58:00,70.2,41.9,30.18,SE,136,4.0,10.0,36,0.00,,,0.00,meteohub,2013-03-09 19:58:00,
2013-03-09 14:03:00,69.6,42.3,30.17,ESE,103,2.0,10.0,37,0.00,,,0.00,meteohub,2013-03-09 20:03:00,
2013-03-09 14:08:00,69.4,41.4,30.17,ENE,75,4.0,15.0,36,0.00,,,0.00,meteohub,2013-03-09 20:08:00,
2013-03-09 14:13:00,69.3,42.6,30.18,ESE,120,5.0,15.0,38,0.00,,,0.00,meteohub,2013-03-09 20:13:00,
2013-03-09 14:19:00,69.3,41.9,30.18,ESE,119,3.0,11.0,37,0.00,,,0.00,meteohub,2013-03-09 20:19:00,
2013-03-09 14:24:00,69.3,41.9,30.18,ESE,122,4.0,11.0,37,0.00,,,0.00,meteohub,2013-03-09 20:24:00,
2013-03-09 14:29:00,69.1,41.7,30.18,SE,133,3.0,9.0,37,0.00,,,0.00,meteohub,2013-03-09 20:29:00,
2013-03-09 14:34:00,69.1,42.4,30.18,ESE,114,4.0,9.0,38,0.00,,,0.00,meteohub,2013-03-09 20:34:00,
2013-03-09 14:39:00,69.3,41.9,30.19,SE,126,3.0,9.0,37,0.00,,,0.00,meteohub,2013-03-09 20:39:00,
2013-03-09 14:44:00,69.4,42.1,30.19,East,93,5.0,10.0,37,0.00,,,0.00,meteohub,2013-03-09 20:44:00,
2013-03-09 14:49:00,69.6,42.8,30.19,ESE,116,3.0,10.0,38,0.00,,,0.00,meteohub,2013-03-09 20:49:00,
2013-03-09 14:54:00,70.2,42.6,30.19,SE,145,3.0,13.0,37,0.00,,,0.00,meteohub,2013-03-09 20:54:00,
2013-03-09 15:00:00,70.2,41.9,30.18,ESE,103,4.0,13.0,36,0.00,,,0.00,meteohub,2013-03-09 21:00:00,
2013-03-09 15:05:00,69.8,41.7,30.18,ESE,117,4.0,13.0,36,0.00,,,0.00,meteohub,2013-03-09 21:05:00,
2013-03-09 15:10:00,69.6,41.5,30.18,SSE,149,5.0,9.0,36,0.00,,,0.00,meteohub,2013-03-09 21:10:00,
2013-03-09 15:15:00,69.4,41.4,30.18,East,93,2.0,8.0,36,0.00,,,0.00,meteohub,2013-03-09 21:15:00,
2013-03-09 15:20:00,69.4,42.1,30.18,ESE,112,2.0,8.0,37,0.00,,,0.00,meteohub,2013-03-09 21:20:00,
2013-03-09 15:25:00,69.4,41.4,30.18,ESE,117,9.0,9.0,36,0.00,,,0.00,meteohub,2013-03-09 21:25:00,
2013-03-09 15:30:00,69.3,41.2,30.18,SE,139,4.0,11.0,36,0.00,,,0.00,meteohub,2013-03-09 21:30:00,
2013-03-09 15:36:00,69.3,41.2,30.18,ESE,105,2.0,11.0,36,0.00,,,0.00,meteohub,2013-03-09 21:36:00,
2013-03-09 15:41:00,69.1,41.0,30.17,SE,135,2.0,11.0,36,0.00,,,0.00,meteohub,2013-03-09 21:41:00,
2013-03-09 15:46:00,69.3,41.2,30.17,ESE,102,4.0,11.0,36,0.00,,,0.00,meteohub,2013-03-09 21:46:00,
2013-03-09 15:51:00,69.4,41.4,30.17,SE,125,2.0,11.0,36,0.00,,,0.00,meteohub,2013-03-09 21:51:00,
2013-03-09 15:56:00,69.4,41.4,30.17,ESE,110,3.0,8.0,36,0.00,,,0.00,meteohub,2013-03-09 21:56:00,
2013-03-09 16:01:00,69.4,41.4,30.17,East,95,7.0,9.0,36,0.00,,,0.00,meteohub,2013-03-09 22:01:00,
2013-03-09 16:06:00,68.9,41.5,30.17,East,100,3.0,10.0,37,0.00,,,0.00,meteohub,2013-03-09 22:06:00,
2013-03-09 16:11:00,68.7,41.4,30.17,ESE,116,3.0,10.0,37,0.00,,,0.00,meteohub,2013-03-09 22:11:00,
2013-03-09 16:17:00,68.5,41.2,30.17,ESE,117,2.0,10.0,37,0.00,,,0.00,meteohub,2013-03-09 22:17:00,
2013-03-09 16:22:00,68.4,41.7,30.17,East,97,3.0,9.0,38,0.00,,,0.00,meteohub,2013-03-09 22:22:00,
2013-03-09 16:27:00,68.2,41.5,30.17,ESE,120,3.0,9.0,38,0.00,,,0.00,meteohub,2013-03-09 22:27:00,
2013-03-09 16:32:00,68.2,41.0,30.17,ESE,102,2.0,9.0,37,0.00,,,0.00,meteohub,2013-03-09 22:32:00,
2013-03-09 16:37:00,68.2,41.0,30.17,ESE,104,2.0,8.0,37,0.00,,,0.00,meteohub,2013-03-09 22:37:00,
2013-03-09 16:42:00,68.2,41.5,30.17,SSE,161,1.0,8.0,38,0.00,,,0.00,meteohub,2013-03-09 22:42:00,
2013-03-09 16:47:00,68.2,41.0,30.17,East,101,2.0,6.0,37,0.00,,,0.00,meteohub,2013-03-09 22:47:00,
2013-03-09 16:52:00,67.8,41.9,30.17,ESE,102,5.0,7.0,39,0.00,,,0.00,meteohub,2013-03-09 22:52:00,
2013-03-09 16:57:00,67.6,41.2,30.17,ESE,115,2.0,9.0,38,0.00,,,0.00,meteohub,2013-03-09 22:57:00,
2013-03-09 17:02:00,67.5,41.7,30.17,ESE,108,3.0,9.0,39,0.00,,,0.00,meteohub,2013-03-09 23:02:00,
2013-03-09 17:07:00,67.5,42.3,30.17,ESE,105,1.0,9.0,40,0.00,,,0.00,meteohub,2013-03-09 23:07:00,
2013-03-09 17:12:00,67.1,41.9,30.17,ESE,115,3.0,9.0,40,0.00,,,0.00,meteohub,2013-03-09 23:12:00,
2013-03-09 17:17:00,66.9,41.9,30.17,East,89,5.0,8.0,40,0.00,,,0.00,meteohub,2013-03-09 23:17:00,
2013-03-09 17:22:00,66.7,43.0,30.17,ESE,122,1.0,8.0,42,0.00,,,0.00,meteohub,2013-03-09 23:22:00,
2013-03-09 17:27:00,66.6,42.1,30.17,ESE,120,1.0,7.0,41,0.00,,,0.00,meteohub,2013-03-09 23:27:00,
2013-03-09 17:32:00,66.0,42.3,30.17,ESE,105,4.0,9.0,42,0.00,,,0.00,meteohub,2013-03-09 23:32:00,
2013-03-09 17:37:00,65.8,42.1,30.17,East,91,3.0,9.0,42,0.00,,,0.00,meteohub,2013-03-09 23:37:00,
2013-03-09 17:42:00,65.7,42.6,30.17,ESE,119,2.0,9.0,43,0.00,,,0.00,meteohub,2013-03-09 23:42:00,
2013-03-09 17:47:00,65.5,42.4,30.17,ESE,106,2.0,6.0,43,0.00,,,0.00,meteohub,2013-03-09 23:47:00,
2013-03-09 17:52:00,65.1,42.6,30.17,SE,131,2.0,7.0,44,0.00,,,0.00,meteohub,2013-03-09 23:52:00,
2013-03-09 17:57:00,64.9,42.4,30.17,East,95,2.0,7.0,44,0.00,,,0.00,meteohub,2013-03-09 23:57:00,
2013-03-09 18:02:00,64.8,42.3,30.17,East,93,2.0,7.0,44,0.00,,,0.00,meteohub,2013-03-10 00:02:00,
2013-03-09 18:07:00,64.6,42.3,30.17,East,92,5.0,5.0,44,0.00,,,0.00,meteohub,2013-03-10 00:07:00,
2013-03-09 18:12:00,64.2,42.4,30.17,East,97,2.0,5.0,45,0.00,,,0.00,meteohub,2013-03-10 00:12:00,
2013-03-09 18:17:00,64.2,42.4,30.17,East,98,2.0,5.0,45,0.00,,,0.00,meteohub,2013-03-10 00:17:00,
2013-03-09 18:23:00,64.0,42.3,30.17,ESE,105,2.0,5.0,45,0.00,,,0.00,meteohub,2013-03-10 00:23:00,
2013-03-09 18:28:00,64.0,42.3,30.17,SE,135,3.0,5.0,45,0.00,,,0.00,meteohub,2013-03-10 00:28:00,
2013-03-09 18:33:00,63.7,42.4,30.16,East,94,2.0,6.0,46,0.00,,,0.00,meteohub,2013-03-10 00:33:00,
2013-03-09 18:38:00,63.3,42.3,30.17,ESE,117,1.0,6.0,46,0.00,,,0.00,meteohub,2013-03-10 00:38:00,
2013-03-09 18:43:00,63.1,42.1,30.17,SE,127,0.0,6.0,46,0.00,,,0.00,meteohub,2013-03-10 00:43:00,
2013-03-09 18:48:00,63.0,42.4,30.17,SW,218,3.0,5.0,47,0.00,,,0.00,meteohub,2013-03-10 00:48:00,
2013-03-09 18:53:00,62.4,42.4,30.17,SW,233,3.0,3.0,48,0.00,,,0.00,meteohub,2013-03-10 00:53:00,
2013-03-09 18:58:00,62.1,42.6,30.17,SW,233,1.0,3.0,49,0.00,,,0.00,meteohub,2013-03-10 00:58:00,
2013-03-09 19:03:00,62.1,42.6,30.17,SW,223,2.0,3.0,49,0.00,,,0.00,meteohub,2013-03-10 01:03:00,
2013-03-09 19:09:00,62.1,42.6,30.17,SW,220,1.0,4.0,49,0.00,,,0.00,meteohub,2013-03-10 01:09:00,
2013-03-09 19:14:00,62.2,42.3,30.17,SSE,151,0.0,4.0,48,0.00,,,0.00,meteohub,2013-03-10 01:14:00,
2013-03-09 19:19:00,62.2,42.3,30.17,SE,138,0.0,4.0,48,0.00,,,0.00,meteohub,2013-03-10 01:19:00,
2013-03-09 19:24:00,62.1,42.6,30.16,SE,139,0.0,4.0,49,0.00,,,0.00,meteohub,2013-03-10 01:24:00,
2013-03-09 19:29:00,61.9,43.5,30.16,SE,131,2.0,4.0,51,0.00,,,0.00,meteohub,2013-03-10 01:29:00,
2013-03-09 19:34:00,61.7,43.3,30.16,SE,126,2.0,3.0,51,0.00,,,0.00,meteohub,2013-03-10 01:34:00,
2013-03-09 19:39:00,61.3,43.0,30.16,ESE,122,1.0,3.0,51,0.00,,,0.00,meteohub,2013-03-10 01:39:00,
2013-03-09 19:44:00,61.3,42.6,30.16,SE,135,0.0,3.0,50,0.00,,,0.00,meteohub,2013-03-10 01:44:00,
2013-03-09 19:49:00,61.2,43.3,30.16,ESE,116,1.0,4.0,52,0.00,,,0.00,meteohub,2013-03-10 01:49:00,
2013-03-09 19:55:00,61.2,43.9,30.15,ESE,123,0.0,4.0,53,0.00,,,0.00,meteohub,2013-03-10 01:55:00,
2013-03-09 20:00:00,61.0,44.8,30.16,SE,124,0.0,4.0,55,0.00,,,0.00,meteohub,2013-03-10 02:00:00,
2013-03-09 20:05:00,60.8,44.1,30.16,SE,124,1.0,3.0,54,0.00,,,0.00,meteohub,2013-03-10 02:05:00,
2013-03-09 20:10:00,60.6,43.3,30.16,SE,124,0.0,2.0,53,0.00,,,0.00,meteohub,2013-03-10 02:10:00,
2013-03-09 20:16:00,60.6,43.3,30.16,SE,124,0.0,2.0,53,0.00,,,0.00,meteohub,2013-03-10 02:16:00,
2013-03-09 20:21:00,60.4,43.2,30.16,SE,124,1.0,2.0,53,0.00,,,0.00,meteohub,2013-03-10 02:21:00,
2013-03-09 20:26:00,60.3,43.5,30.16,ESE,104,1.0,3.0,54,0.00,,,0.00,meteohub,2013-03-10 02:26:00,
2013-03-09 20:31:00,60.3,44.1,30.16,ESE,117,1.0,4.0,55,0.00,,,0.00,meteohub,2013-03-10 02:31:00,
2013-03-09 20:36:00,60.1,43.9,30.16,ESE,117,1.0,4.0,55,0.00,,,0.00,meteohub,2013-03-10 02:36:00,
2013-03-09 20:41:00,59.9,44.2,30.15,East,101,2.0,3.0,56,0.00,,,0.00,meteohub,2013-03-10 02:41:00,
2013-03-09 20:47:00,59.5,44.2,30.15,East,89,2.0,5.0,57,0.00,,,0.00,meteohub,2013-03-10 02:47:00,
2013-03-09 20:52:00,59.2,44.4,30.15,SE,145,1.0,6.0,58,0.00,,,0.00,meteohub,2013-03-10 02:52:00,
2013-03-09 20:57:00,59.0,44.2,30.15,East,95,2.0,6.0,58,0.00,,,0.00,meteohub,2013-03-10 02:57:00,
2013-03-09 21:02:00,59.0,44.2,30.14,East,100,1.0,6.0,58,0.00,,,0.00,meteohub,2013-03-10 03:02:00,
2013-03-09 21:07:00,59.0,44.2,30.14,East,97,2.0,4.0,58,0.00,,,0.00,meteohub,2013-03-10 03:07:00,
2013-03-09 21:12:00,59.0,44.8,30.15,ESE,122,1.0,3.0,59,0.00,,,0.00,meteohub,2013-03-10 03:12:00,
2013-03-09 21:17:00,58.8,44.6,30.15,SE,129,1.0,4.0,59,0.00,,,0.00,meteohub,2013-03-10 03:17:00,
2013-03-09 21:22:00,58.8,45.0,30.15,SE,141,4.0,5.0,60,0.00,,,0.00,meteohub,2013-03-10 03:22:00,
2013-03-09 21:28:00,58.8,45.3,30.16,SSE,152,1.0,5.0,61,0.00,,,0.00,meteohub,2013-03-10 03:28:00,
2013-03-09 21:33:00,58.6,45.7,30.15,SSE,154,2.0,5.0,62,0.00,,,0.00,meteohub,2013-03-10 03:33:00,
2013-03-09 21:38:00,58.6,45.7,30.15,SSE,164,0.0,4.0,62,0.00,,,0.00,meteohub,2013-03-10 03:38:00,
2013-03-09 21:43:00,58.5,45.9,30.15,SE,134,0.0,3.0,63,0.00,,,0.00,meteohub,2013-03-10 03:43:00,
2013-03-09 21:48:00,58.3,45.7,30.15,SE,134,1.0,3.0,63,0.00,,,0.00,meteohub,2013-03-10 03:48:00,
2013-03-09 21:54:00,58.1,46.0,30.16,SSW,206,1.0,3.0,64,0.00,,,0.00,meteohub,2013-03-10 03:54:00,
2013-03-09 21:59:00,57.9,46.2,30.16,SSW,204,0.0,4.0,65,0.00,,,0.00,meteohub,2013-03-10 03:59:00,
2013-03-09 22:04:00,57.7,46.0,30.16,South,191,0.0,4.0,65,0.00,,,0.00,meteohub,2013-03-10 04:04:00,
2013-03-09 22:09:00,57.7,46.0,30.15,SE,144,1.0,4.0,65,0.00,,,0.00,meteohub,2013-03-10 04:09:00,
2013-03-09 22:14:00,57.7,46.0,30.15,SE,145,2.0,3.0,65,0.00,,,0.00,meteohub,2013-03-10 04:14:00,
2013-03-09 22:19:00,57.7,46.0,30.15,SE,145,1.0,3.0,65,0.00,,,0.00,meteohub,2013-03-10 04:19:00,
2013-03-09 22:24:00,57.6,46.2,30.15,SE,145,0.0,3.0,66,0.00,,,0.00,meteohub,2013-03-10 04:24:00,
2013-03-09 22:29:00,57.4,46.0,30.15,SE,144,0.0,2.0,66,0.00,,,0.00,meteohub,2013-03-10 04:29:00,
2013-03-09 22:34:00,57.4,45.7,30.15,SE,144,0.0,3.0,65,0.00,,,0.00,meteohub,2013-03-10 04:34:00,
2013-03-09 22:40:00,57.4,46.0,30.14,SE,144,0.0,3.0,66,0.00,,,0.00,meteohub,2013-03-10 04:40:00,
2013-03-09 22:45:00,57.0,45.9,30.14,SE,144,1.0,3.0,66,0.00,,,0.00,meteohub,2013-03-10 04:45:00,
2013-03-09 22:50:00,56.7,45.9,30.15,SE,145,0.0,2.0,67,0.00,,,0.00,meteohub,2013-03-10 04:50:00,
2013-03-09 22:55:00,56.3,45.9,30.14,SE,145,0.0,2.0,68,0.00,,,0.00,meteohub,2013-03-10 04:55:00,
2013-03-09 23:00:00,56.1,45.7,30.14,SE,145,0.0,2.0,68,0.00,,,0.00,meteohub,2013-03-10 05:00:00,
2013-03-09 23:01:00,56.1,45.7,30.14,SE,145,1.0,2.0,68,0.00,,,0.00,meteohub,2013-03-10 05:01:00,
2013-03-09 23:02:00,56.1,45.7,30.14,SE,145,1.0,2.0,68,0.00,,,0.00,meteohub,2013-03-10 05:02:00,
2013-03-09 23:04:00,56.1,45.7,30.14,SE,145,0.0,2.0,68,0.00,,,0.00,meteohub,2013-03-10 05:04:00,
2013-03-09 23:09:00,55.9,45.9,30.14,SE,145,0.0,1.0,69,0.00,,,0.00,meteohub,2013-03-10 05:09:00,
2013-03-09 23:14:00,55.4,45.9,30.13,SE,145,0.0,1.0,70,0.00,,,0.00,meteohub,2013-03-10 05:14:00,
2013-03-09 23:19:00,55.0,45.9,30.13,SE,145,0.0,2.0,71,0.00,,,0.00,meteohub,2013-03-10 05:19:00,
2013-03-09 23:24:00,54.7,45.9,30.13,SE,145,0.0,2.0,72,0.00,,,0.00,meteohub,2013-03-10 05:24:00,
2013-03-09 23:30:00,54.3,45.5,30.13,SE,145,0.0,2.0,72,0.00,,,0.00,meteohub,2013-03-10 05:30:00,
2013-03-09 23:35:00,54.0,45.1,30.13,SE,145,0.0,1.0,72,0.00,,,0.00,meteohub,2013-03-10 05:35:00,
2013-03-09 23:40:00,54.0,45.5,30.13,ESE,118,1.0,2.0,73,0.00,,,0.00,meteohub,2013-03-10 05:40:00,
2013-03-09 23:45:00,53.6,45.5,30.13,East,93,2.0,2.0,74,0.00,,,0.00,meteohub,2013-03-10 05:45:00,
2013-03-09 23:50:00,53.4,45.3,30.12,East,95,5.0,5.0,74,0.00,,,0.00,meteohub,2013-03-10 05:50:00,
2013-03-09 23:55:00,53.2,45.1,30.12,East,91,5.0,6.0,74,0.00,,,0.00,meteohub,2013-03-10 05:55:00,